Raleigh, NC

12:00 PM EDT on October 01, 2016 (GMT -0400)
Raleigh-Durham International

Weather History for KRDU - January, 2014

Change the Weather History Date:

Friday, January 17, 2014

  Actual Average Record
Temperature  
Mean Temperature 43 °F 41 °F  
Max Temperature 56 °F 51 °F 77 °F (1943)
Min Temperature 29 °F 31 °F -1 °F (1977)
Degree Days  
Heating Degree Days 22 24  
Month to date heating degree days 416 414  
Since 1 July heating degree days 1648 1665  
Cooling Degree Days 0 0  
Month to date cooling degree days 0 0  
Year to date cooling degree days 0 0  
Moisture  
Dew Point 27 °F    
Average Humidity 54    
Maximum Humidity 69    
Minimum Humidity 38    
Precipitation  
Precipitation 0.00 in 0.12 in 1.75 in (1946)
Month to date precipitation 1.68 1.93  
Year to date precipitation 1.68 1.93  
Snow  
Snow 0.00 in 0.10 in 4.00 in (1946)
Month to date snowfall T 1.5  
Since 1 July snowfall T 2.2  
Snow Depth 0.00 in    
Sea Level Pressure  
Sea Level Pressure 29.95 in    
Wind  
Wind Speed 9 mph (SW)    
Max Wind Speed 21 mph    
Max Gust Speed 25 mph    
Visibility 10 miles    
Events      
T = Trace of Precipitation, MM = Missing Value Source: NWS Daily Summary

Daily Weather History Graph

Daily Weather History Graph

Search for Another Location

Airport or City:

Trip Planner

Search our weather history database for the weather conditions in past years. The results will help you decide how hot, cold, wet, or windy it might be!

Date:

Astronomy

Jan. 17, 2014 Rise Set
Actual Time 7:24 AM EST 5:26 PM EST
Civil Twilight 6:56 AM EST 5:54 PM EST
Nautical Twilight 6:25 AM EST 6:25 PM EST
Astronomical Twilight 5:54 AM EST 6:56 PM EST
Moon 7:06 PM EST (1/17) 7:55 AM EST (1/17)
Length of Visible Light 10h 58m
Length of Day
10h 02m
Full, 98% of the Moon is Illuminated
Jan 17
Full
Jan 24
Last Quarter
Jan 30
New
Feb 6
First Quarter
Feb 14
Full

Hourly Weather History & Observations

Time (EST) Temp. Windchill Dew Point Humidity Pressure Visibility Wind Dir Wind Speed Gust Speed Precip Events Conditions
12:51 AM 30.9 °F 25.2 °F 21.9 °F 69% 30.03 in 10.0 mi SW 5.8 mph - N/A   Clear
1:51 AM 30.0 °F 23.2 °F 21.9 °F 72% 30.03 in 10.0 mi SW 6.9 mph - N/A   Clear
2:51 AM 33.1 °F 27.7 °F 21.9 °F 64% 30.01 in 10.0 mi SSW 5.8 mph - N/A   Clear
3:51 AM 32.0 °F 24.8 °F 21.9 °F 66% 30.00 in 10.0 mi SW 8.1 mph - N/A   Clear
4:51 AM 30.9 °F 25.2 °F 21.0 °F 67% 29.99 in 10.0 mi SW 5.8 mph - N/A   Clear
5:51 AM 30.9 °F 23.5 °F 21.0 °F 67% 29.99 in 10.0 mi SW 8.1 mph - N/A   Clear
6:51 AM 30.9 °F 23.5 °F 19.9 °F 64% 30.00 in 10.0 mi SSW 8.1 mph - N/A   Clear
7:51 AM 30.2 °F 25.4 °F 21.2 °F 69% 30.01 in 10.0 mi SSW 4.6 mph - N/A   Clear
8:51 AM 35.1 °F 31.0 °F 21.0 °F 57% 30.02 in 10.0 mi SW 4.6 mph - N/A   Partly Cloudy
9:51 AM 39.9 °F 32.9 °F 21.9 °F 49% 30.03 in 10.0 mi SW 11.5 mph - N/A   Partly Cloudy
10:51 AM 44.1 °F 38.6 °F 23.0 °F 43% 30.02 in 10.0 mi SW 10.4 mph - N/A   Scattered Clouds
11:51 AM 48.9 °F - 26.1 °F 41% 29.97 in 10.0 mi SW 4.6 mph - N/A   Scattered Clouds
12:51 PM 53.1 °F - 28.9 °F 40% 29.92 in 10.0 mi SSW 15.0 mph 20.7 mph N/A   Partly Cloudy
1:51 PM 55.9 °F - 30.0 °F 37% 29.90 in 10.0 mi SW 17.3 mph 23.0 mph N/A   Scattered Clouds
2:51 PM 54.0 °F - 30.0 °F 40% 29.87 in 10.0 mi SSW 15.0 mph - N/A   Mostly Cloudy
3:51 PM 53.1 °F - 30.0 °F 41% 29.88 in 10.0 mi SW 15.0 mph - N/A   Mostly Cloudy
4:51 PM 52.0 °F - 30.9 °F 45% 29.87 in 10.0 mi SSW 16.1 mph 21.9 mph N/A   Mostly Cloudy
5:51 PM 50.0 °F - 30.9 °F 48% 29.88 in 10.0 mi SSW 8.1 mph - N/A   Mostly Cloudy
6:51 PM 48.0 °F - 33.1 °F 56% 29.89 in 10.0 mi SSW 8.1 mph - N/A   Mostly Cloudy
7:51 PM 48.0 °F - 33.1 °F 56% 29.90 in 10.0 mi SSW 10.4 mph - N/A   Mostly Cloudy
8:51 PM 46.9 °F - 34.0 °F 61% 29.88 in 10.0 mi SSW 6.9 mph - N/A   Mostly Cloudy
9:51 PM 46.0 °F 43.9 °F 33.1 °F 61% 29.87 in 10.0 mi SSW 4.6 mph - N/A   Mostly Cloudy
10:51 PM 46.0 °F 43.9 °F 34.0 °F 63% 29.86 in 10.0 mi SW 4.6 mph - N/A   Overcast
11:51 PM 46.9 °F - 33.1 °F 59% 29.85 in 10.0 mi SW 15.0 mph - N/A   Overcast